Weather History for Milk River, Alberta

Change the Weather History Date:

Tuesday, December 24, 2013

  Actual Average Record
Temperature  
Mean Temperature 28 °F -  
Max Temperature 36 °F - - ()
Min Temperature 20 °F - - ()
Degree Days  
Heating Degree Days 37    
Moisture  
Dew Point 21 °F    
Average Humidity 70    
Maximum Humidity 86    
Minimum Humidity 51    
Precipitation  
Precipitation 0.00 in - - ()
Sea Level Pressure  
Sea Level Pressure 30.18 in    
Wind  
Wind Speed 11 mph ()    
Max Wind Speed 25 mph    
Max Gust Speed 32 mph    
T = Trace of Precipitation, MM = Missing Value Source: Averaged Metar Reports

Daily Weather History Graph

Daily Weather History Graph

Search for Another Location

Airport:

Trip Planner

Search our weather history database for the weather conditions in past years. The results will help you decide how hot, cold, wet, or windy it might be!

Date:

Astronomy

Dec. 24, 2013 Rise Set
Actual Time 8:21 AM MST 4:34 PM MST
Civil Twilight 7:44 AM MST 5:12 PM MST
Nautical Twilight 7:03 AM MST 5:52 PM MST
Astronomical Twilight 6:24 AM MST 6:31 PM MST
Moon No Moon Rise 11:43 AM MST (12/24)
Length of Visible Light 9h 27m
Length of Day
8h 12m
Waning Gibbous, 58% of the Moon is Illuminated
Dec 24
Waning Gibbous
Dec 25
Last Quarter
Jan 1
New
Jan 7
First Quarter
Jan 15
Full

Hourly Weather History & Observations

Time (MST) Temp. Windchill Dew Point Humidity Pressure Visibility Wind Dir Wind Speed Gust Speed Precip Events Conditions
12:00 AM 31.8 °F 23.3 °F 26.4 °F 80% 29.97 in - NNW 10.4 mph - N/A   Unknown
1:00 AM 33.1 °F 24.9 °F 25.3 °F 73% 30.00 in - NW 10.4 mph - N/A   Unknown
2:00 AM 27.9 °F 20.6 °F 23.2 °F 83% 30.05 in - WNW 6.9 mph - N/A   Unknown
3:00 AM 27.1 °F 16.9 °F 22.6 °F 83% 30.09 in - WNW 11.5 mph - N/A   Unknown
4:00 AM 27.9 °F 17.8 °F 21.2 °F 76% 30.10 in - WNW 11.5 mph - N/A   Unknown
5:00 AM 27 °F - 20 °F 67% 30.12 in - WNW 8.1 mph - -  
5:00 AM 26.6 °F 18.2 °F 20.5 °F 78% 30.12 in - WNW 8.1 mph - N/A   Unknown
6:00 AM 29.5 °F 21.1 °F 25.7 °F 86% 30.12 in - WNW 9.2 mph - N/A   Unknown
7:00 AM 27.0 °F 18.7 °F 23.2 °F 86% 30.14 in - West 8.1 mph - N/A   Unknown
8:00 AM 27.0 °F 14.3 °F 19.9 °F 75% 30.13 in - West 17.3 mph - N/A   Unknown
9:00 AM 24.4 °F 12.4 °F 17.8 °F 76% 30.14 in - West 13.8 mph - N/A   Unknown
10:00 AM 28.2 °F 17.7 °F 19.0 °F 68% 30.15 in - West 12.7 mph - N/A   Unknown
11:00 AM 32 °F - 21 °F 51% 30.16 in - West 15.0 mph - -  
11:00 AM 32.0 °F 21.6 °F 20.7 °F 63% 30.16 in - West 15.0 mph - N/A   Unknown
12:00 PM 34.0 °F 23.0 °F 21.4 °F 60% 30.14 in - West 18.4 mph - N/A   Unknown
1:00 PM 36.0 °F 25.0 °F 22.1 °F 57% 30.14 in - West 20.7 mph 26.5 mph N/A   Unknown
2:00 PM 36.1 °F 24.2 °F 22.1 °F 57% 30.17 in - West 25.3 mph 32.2 mph N/A   Unknown
3:00 PM 35.1 °F 23.3 °F 21.9 °F 59% 30.18 in - West 23.0 mph 28.8 mph N/A   Unknown
4:00 PM 31.3 °F 19.2 °F 21.2 °F 66% 30.21 in - West 19.6 mph - N/A   Unknown
5:00 PM 29 °F - 20 °F 58% 30.24 in - West 18.4 mph - -  
5:00 PM 29.3 °F 17.0 °F 20.1 °F 69% 30.24 in - West 18.4 mph - N/A   Unknown
6:00 PM 31.1 °F 19.7 °F 18.3 °F 59% 30.27 in - WNW 17.3 mph 23.0 mph N/A   Unknown
7:00 PM 26.1 °F 16.2 °F 18.0 °F 71% 30.31 in - NW 10.4 mph - N/A   Unknown
8:00 PM 29.1 °F 17.5 °F 18.1 °F 64% 30.32 in - NW 16.1 mph - N/A   Unknown
9:00 PM 27.7 °F 16.6 °F 17.8 °F 66% 30.35 in - NW 13.8 mph - N/A   Unknown
10:00 PM 27.3 °F 16.6 °F 18.1 °F 68% 30.36 in - NW 12.7 mph - N/A   Unknown
11:00 PM 20 °F - 15 °F 71% 30.38 in - SW 4.6 mph - -  
11:00 PM 20.5 °F 14.0 °F 14.5 °F 78% 30.38 in - SW 4.6 mph - N/A   Unknown